Location: Valdosta
(30.8330°N, 83.2790°W)
Time: 19:44:32
(UTC-04:00)

Amateur Radio Satellites - All Passes

Search period start: 02 September 2014 19:14
Search period end: 03 September 2014 19:14
Location: Valdosta, 30.8330°N, 83.2790°W

Satellite Date Start Highest point End Downlink Frequencies (MHz)
Time Altitude Azimuth
STRAND 1 02 Sep 19:56:39 20:01:34 46° 100° (E) 20:06:27 ?
JAS-2 02 Sep 20:09:30 20:13:45 19° 263° (W) 20:17:44 435.800 - 435.900 CW/SSB, 435.910 FM
HO-68 02 Sep 20:30:38 20:35:28 20° 62° (ENE) 20:40:17 435.675 MHz FM
SO-67 02 Sep 20:41:39 20:44:27 23° 263° (W) 20:47:16 435.3500 MHz FM
Saudisat 1A 02 Sep 21:15:52 21:18:34 16° 109° (ESE) 21:21:16 436.775 MHz
STRAND 1 02 Sep 21:37:17 21:40:19 16° 293° (WNW) 21:43:21 ?
KITSAT 1 02 Sep 21:48:19 21:52:25 15° 101° (ESE) 21:56:31 435.175 FM
HO-68 02 Sep 22:15:27 22:22:30 64° 257° (WSW) 22:29:35 435.675 MHz FM
UKube-1 02 Sep 22:25:59 22:30:19 79° 257° (WSW) 22:34:40 145.840 MHz, 145.915 MHz
Oscar 11 02 Sep 22:28:39 22:32:56 64° 76° (ENE) 22:37:15 145.825 FM, Beacon 2401.500 USB
MaSat-1 02 Sep 22:52:36 22:56:31 35° 62° (ENE) 22:59:54 437.345 MHz
Saudisat 1A 02 Sep 22:53:45 22:57:48 36° 302° (WNW) 23:01:53 436.775 MHz
FUNcube-1 02 Sep 23:03:38 23:07:43 58° 76° (ENE) 23:11:54 145.950 - 145.970 MHz USB
KITSAT 1 02 Sep 23:38:42 23:46:48 84° 295° (WNW) 23:54:56 435.175 FM
MaSat-1 03 Sep 00:31:42 00:32:51 11° 262° (W) 00:33:58 437.345 MHz
KITSAT 1 03 Sep 01:38:36 01:43:20 16° 314° (NW) 01:48:05 435.175 FM
Sapphire 03 Sep 01:40:14 01:44:07 20° 55° (NE) 01:47:59 437.095 MHz 1200 baud AX-25 AFSK
PCSat 03 Sep 02:08:29 02:13:31 38° 60° (ENE) 02:18:30 145.825 MHz
SO-50 03 Sep 02:09:23 02:11:13 12° 107° (ESE) 02:13:04 436.795 FM
Oscar 19 03 Sep 02:11:27 02:15:22 22° 96° (E) 02:19:15 437.125 CW, 437.150 USB
Oscar 16 03 Sep 02:45:59 02:51:04 53° 100° (E) 02:56:06 437.025 USB, Beacon 2401.1428
ITAMSAT 1 03 Sep 02:51:34 02:55:34 22° 96° (E) 02:59:33 435.822 SSB
Uribyol 2 03 Sep 03:00:11 03:04:43 30° 98° (E) 03:09:13 436.500 FM
TMSAT-1 03 Sep 03:20:31 03:22:46 13° 93° (E) 03:25:00 436.925 FM
AO-27 03 Sep 03:20:44 03:25:44 47° 100° (E) 03:30:43 436.795 MHz FM
Sapphire 03 Sep 03:22:33 03:27:43 46° 250° (WSW) 03:32:51 437.095 MHz 1200 baud AX-25 AFSK
SO-50 03 Sep 03:47:00 03:51:16 47° 301° (WNW) 03:55:39 436.795 FM
AO-Echo 03 Sep 03:49:15 03:53:57 73° 284° (WNW) 03:58:42 ?
Oscar 19 03 Sep 03:50:03 03:54:41 34° 289° (WNW) 03:59:18 437.125 CW, 437.150 USB
UOSAT-12 03 Sep 03:51:18 03:51:26 10° 106° (ESE) 03:51:34 437.025 FM, 437.400 FM
PCSat 03 Sep 03:52:33 03:56:36 22° 254° (WSW) 04:00:39 145.825 MHz
JAS-1B 03 Sep 03:54:12 04:00:29 84° 103° (ESE) 04:06:10 435.800 - 435.900 CW/SSB
Gurwin Techsat 1B 03 Sep 04:08:29 04:13:45 62° 101° (E) 04:18:59 435.225 FM
Oscar 16 03 Sep 04:27:09 04:29:54 15° 294° (WNW) 04:32:39 437.025 USB, Beacon 2401.1428
ITAMSAT 1 03 Sep 04:30:25 04:35:01 33° 289° (WNW) 04:39:37 435.822 SSB
AO-7 03 Sep 04:38:06 04:44:04 22° 96° (E) 04:49:59 29.400 - 29.500 MHz
Uribyol 2 03 Sep 04:39:48 04:44:00 25° 291° (WNW) 04:48:11 436.500 FM
Uosat F 03 Sep 04:44:42 04:47:25 15° 94° (E) 04:50:08 435.120 FM
TMSAT-1 03 Sep 04:57:45 05:02:57 58° 286° (WNW) 05:08:07 436.925 FM
AO-27 03 Sep 05:01:40 05:04:48 16° 293° (WNW) 05:07:57 436.795 MHz FM
OPAL 03 Sep 05:17:08 05:22:11 82° 74° (ENE) 05:27:19 ?
UOSAT-12 03 Sep 05:26:27 05:30:58 60° 299° (WNW) 05:35:35 437.025 FM, 437.400 FM
Gurwin Techsat 1B 03 Sep 05:50:49 05:53:07 13° 295° (WNW) 05:55:25 435.225 FM
Uosat F 03 Sep 06:21:35 06:26:21 46° 287° (WNW) 06:31:07 435.120 FM
AO-7 03 Sep 06:29:03 06:37:13 65° 290° (WNW) 06:45:21 29.400 - 29.500 MHz
Hamsat 03 Sep 06:41:02 06:44:27 23° 96° (E) 06:47:51 145.90 MHz
RS-15 03 Sep 06:45:14 06:55:14 39° 107° (ESE) 07:04:58 29.354 - 29.394 USB, Beacon 29.352 USB
STRAND 1 03 Sep 07:07:23 07:12:04 38° 72° (ENE) 07:16:45 ?
JAS-2 03 Sep 07:21:09 07:26:34 66° 102° (ESE) 07:32:35 435.800 - 435.900 CW/SSB, 435.910 FM
Saudisat 1A 03 Sep 07:25:25 07:29:29 35° 58° (ENE) 07:33:31 436.775 MHz
KITSAT 1 03 Sep 07:39:36 07:45:09 20° 48° (NE) 07:50:40 435.175 FM
SO-67 03 Sep 08:10:13 08:13:20 31° 98° (E) 08:16:25 435.3500 MHz FM
Hamsat 03 Sep 08:16:56 08:20:16 22° 289° (WNW) 08:23:34 145.90 MHz
AO-7 03 Sep 08:28:06 08:28:24 10° 307° (NW) 08:28:41 29.400 - 29.500 MHz
STRAND 1 03 Sep 08:47:50 08:51:19 18° 265° (W) 08:54:47 ?
ISS 03 Sep 08:56:25 08:59:37 48° 131° (SE) 09:02:50 145.800 FM
RS-15 03 Sep 08:56:35 09:07:11 49° 304° (NW) 09:17:41 29.354 - 29.394 USB, Beacon 29.352 USB
Saudisat 1A 03 Sep 09:05:58 09:08:44 16° 251° (WSW) 09:11:29 436.775 MHz
JAS-2 03 Sep 09:09:01 09:11:14 13° 293° (WNW) 09:13:32 435.800 - 435.900 CW/SSB, 435.910 FM
PANSAT 03 Sep 09:24:14 09:26:52 18° 157° (SSE) 09:29:31 not established
KITSAT 1 03 Sep 09:33:18 09:41:23 82° 246° (WSW) 09:49:25 435.175 FM
HO-68 03 Sep 09:49:34 09:55:55 34° 99° (E) 10:02:15 435.675 MHz FM
UKube-1 03 Sep 10:20:12 10:23:52 26° 98° (E) 10:27:31 145.840 MHz, 145.915 MHz
Oscar 11 03 Sep 10:22:51 10:25:51 18° 95° (E) 10:28:50 145.825 FM, Beacon 2401.500 USB
ISS 03 Sep 10:34:43 10:36:32 14° 326° (NW) 10:38:21 145.800 FM
FUNcube-1 03 Sep 10:58:54 11:02:10 19° 95° (E) 11:05:25 145.950 - 145.970 MHz USB
PANSAT 03 Sep 11:02:59 11:06:41 44° 169° (SSE) 11:10:23 not established
RS-15 03 Sep 11:19:33 11:23:05 12° 332° (NNW) 11:26:39 29.354 - 29.394 USB, Beacon 29.352 USB
KITSAT 1 03 Sep 11:33:44 11:35:33 11° 260° (W) 11:37:22 435.175 FM
HO-68 03 Sep 11:37:06 11:43:30 37° 292° (WNW) 11:49:54 435.675 MHz FM
UKube-1 03 Sep 11:56:42 11:59:51 20° 290° (WNW) 12:03:00 145.840 MHz, 145.915 MHz
Oscar 11 03 Sep 11:58:15 12:01:59 28° 288° (WNW) 12:05:43 145.825 FM, Beacon 2401.500 USB
Oscar 10/S400 03 Sep 12:17:27 03:46:12 57° 225° (SW) 13:24:01 145.825 - 145.975 CW/USB, Beacon 145.810 USB
SO-50 03 Sep 12:23:40 12:28:05 35° 58° (ENE) 12:32:30 436.795 FM
MaSat-1 03 Sep 12:33:36 12:38:10 50° 107° (ESE) 12:43:06 437.345 MHz
FUNcube-1 03 Sep 12:34:29 12:38:30 31° 287° (WNW) 12:42:33 145.950 - 145.970 MHz USB
PANSAT 03 Sep 12:42:53 12:46:42 61° 181° (S) 12:50:31 not established
Oscar 19 03 Sep 13:23:37 13:27:06 19° 68° (ENE) 13:30:36 437.125 CW, 437.150 USB
Oscar 16 03 Sep 13:57:36 14:02:28 44° 73° (ENE) 14:07:22 437.025 USB, Beacon 2401.1428
UOSAT-12 03 Sep 14:01:43 14:05:42 26° 55° (NE) 14:09:36 437.025 FM, 437.400 FM
SO-50 03 Sep 14:04:50 14:08:23 21° 250° (WSW) 14:11:57 436.795 FM
ITAMSAT 1 03 Sep 14:04:50 14:08:31 20° 68° (ENE) 14:12:13 435.822 SSB
MaSat-1 03 Sep 14:12:21 14:15:28 17° 303° (WNW) 14:18:41 437.345 MHz
Uribyol 2 03 Sep 14:13:08 14:17:21 26° 70° (ENE) 14:21:35 436.500 FM
PANSAT 03 Sep 14:23:05 14:26:42 38° 194° (SSW) 14:30:18 not established
JAS-1B 03 Sep 14:29:08 14:38:28 52° 71° (ENE) 14:46:53 435.800 - 435.900 CW/SSB
AO-27 03 Sep 14:33:39 14:38:28 41° 72° (ENE) 14:43:17 436.795 MHz FM
TMSAT-1 03 Sep 14:36:45 14:38:52 12° 65° (ENE) 14:40:58 436.925 FM
AO-Echo 03 Sep 14:56:31 15:01:33 81° 77° (ENE) 15:06:27 ?
Oscar 19 03 Sep 15:01:15 15:06:04 41° 261° (W) 15:10:57 437.125 CW, 437.150 USB
Gurwin Techsat 1B 03 Sep 15:24:08 15:29:18 57° 74° (ENE) 15:34:30 435.225 FM
AO-7 03 Sep 15:32:22 15:37:50 20° 59° (ENE) 15:43:18 29.400 - 29.500 MHz
Oscar 16 03 Sep 15:38:46 15:41:57 16° 266° (W) 15:45:08 437.025 USB, Beacon 2401.1428
UOSAT-12 03 Sep 15:41:51 15:45:43 26° 250° (WSW) 15:49:32 437.025 FM, 437.400 FM
ITAMSAT 1 03 Sep 15:42:57 15:47:42 37° 261° (W) 15:52:28 435.822 SSB
Uribyol 2 03 Sep 15:52:18 15:56:40 28° 263° (W) 16:01:03 436.500 FM
RS-15 03 Sep 15:52:33 16:01:47 29° 47° (NE) 16:11:13 29.354 - 29.394 USB, Beacon 29.352 USB
Uosat F 03 Sep 15:54:04 15:55:55 12° 65° (ENE) 15:57:46 435.120 FM
PANSAT 03 Sep 16:04:26 16:06:27 14° 205° (SSW) 16:08:27 not established
TMSAT-1 03 Sep 16:12:56 16:18:10 64° 259° (WSW) 16:23:25 436.925 FM
AO-27 03 Sep 16:14:40 16:18:04 18° 265° (W) 16:21:28 436.795 MHz FM
Sapphire 03 Sep 16:15:28 16:20:39 51° 110° (ESE) 16:25:53 437.095 MHz 1200 baud AX-25 AFSK
JAS-1B 03 Sep 16:20:12 16:28:49 35° 262° (W) 16:36:51 435.800 - 435.900 CW/SSB
PCSat 03 Sep 16:44:15 16:49:38 77° 295° (WNW) 16:55:04 145.825 MHz
ISS 03 Sep 17:05:58 17:09:13 52° 44° (NE) 17:12:28 145.800 FM
Gurwin Techsat 1B 03 Sep 17:07:10 17:09:32 13° 267° (W) 17:11:54 435.225 FM
AO-7 03 Sep 17:21:22 17:29:42 77° 254° (WSW) 17:38:03 29.400 - 29.500 MHz
Uosat F 03 Sep 17:29:11 17:34:07 61° 259° (WSW) 17:39:04 435.120 FM
JAS-2 03 Sep 17:31:03 17:33:59 14° 67° (ENE) 17:36:47 435.800 - 435.900 CW/SSB, 435.910 FM
OPAL 03 Sep 17:32:52 17:37:38 36° 100° (E) 17:42:20 ?
Sapphire 03 Sep 18:00:44 18:04:20 18° 306° (NW) 18:07:57 437.095 MHz 1200 baud AX-25 AFSK
RS-15 03 Sep 18:03:53 18:15:01 74° 247° (WSW) 18:26:40 29.354 - 29.394 USB, Beacon 29.352 USB
Hamsat 03 Sep 19:03:38 19:07:53 62° 260° (W) 19:12:12 145.90 MHz
